User: anonymous   Login
Location: Springfield
(37.2150°N, 93.2980°W)
Time: 07:20:35
(UTC-05:00)
Language:

Iridium 62 - Orbit

View from above orbital plane
View from above orbital plane
View from above satellite
View from above satellite

Ground track
Ground track

The orbit data is extracted from the following two-line orbital elements,

1 25285U 98021A   15245.76172476 +.00000218 +00000-0 +70789-4 0  9995
2 25285 086.3992 137.0893 0002220 078.0833 282.0611 14.34216375911363
Epoch (UTC): 02 September 2015 18:16:53
Eccentricity: 0.0002220
inclination: 86.3992°
perigee height: 776 km
apogee height: 779 km
right ascension of ascending node: 137.0893°
argument of perigee: 78.0833°
revolutions per day: 14.34216375
mean anomaly at epoch: 282.0611°
orbit number at epoch: 91136

The dashed part of the orbit path shows where the satellite is in the earth's shadow,  

DLR